Home > Weather > Newport News > Past weeks

Flag for USA Weather for the Past 2 Weeks in Newport News, Virginia, USA

Now
63 °F

Overcast.


Feels Like: 63 °F
Forecast: 56 / 75 °F
Wind: 8 mph from South

Location: Newport News / Williamsburg International Airport

Current Time: May 1, 2016 at 1:31:42 PM

Latest Report: May 1, 2016 at 12:54 PM


Visibility: 10 mi

Pressure: 30.09 "Hg

Humidity: 81%

Dew Point: 57 °F

Location of Newport NewsLocation

Historic Weather in Newport News — Graph

°F

Newport News Temperature Yesterday

Maximum temperature yesterday: 59 °F (at 3:54 PM)
Minimum temperature yesterday: 54 °F (at 3:54 AM)
Average temperature yesterday: 56 °F

High & Low Weather Summary for the Past Weeks

 TemperatureHumidityPressure
High85 °F (Apr 19, 2:54 PM)100% (Apr 23, 9:54 PM)30.45 "Hg (Apr 23, 9:54 PM)
Low38 °F (Apr 17, 12:54 AM)23% (Apr 18, 3:54 PM)29.73 "Hg (Apr 26, 6:54 PM)
Average61 °F71%30.06 "Hg
* Reported Apr 16 11:54 AM — May 1 11:54 AM, Newport News, Weather by CustomWeather, © 2016

Note: Actual official high and low records may vary slightly from our data, if they occured in-between our weather recording intervals... More about our weather records

Advertising

Newport News Weather History for the Previous 24 Hours

Scroll right to see more
 ConditionsComfort  
Time TempWeatherWind HumidityBarometerVisibility
11:54 AM
Sun, May 1
62 °FOvercast.7 mph80%30.09 "Hg10 mi
10:54 AM59 °FLight rain. Overcast.6 mph84%30.10 "Hg10 mi
9:54 AM59 °FMostly cloudy.6 mph81%30.12 "Hg10 mi
8:54 AM58 °FMostly cloudy.7 mph81%30.13 "Hg10 mi
7:54 AM57 °FOvercast.7 mph87%30.13 "Hg10 mi
6:54 AM56 °FOvercast.5 mph90%30.14 "Hg10 mi
5:54 AM56 °FOvercast.5 mph87%30.15 "Hg10 mi
4:54 AM56 °FMostly cloudy.5 mph84%30.14 "Hg10 mi
3:54 AM55 °FOvercast.7 mph87%30.14 "Hg10 mi
2:54 AM54 °FClear.3 mph90%30.13 "Hg10 mi
1:54 AM54 °FClear.7 mph86%30.15 "Hg10 mi
12:54 AM55 °FOvercast.7 mph87%30.19 "Hg10 mi
11:54 PM
Sat, Apr 30
54 °FPassing clouds.6 mph86%30.21 "Hg10 mi
10:54 PM54 °FPassing clouds.7 mph86%30.20 "Hg10 mi
9:54 PM54 °FPassing clouds.7 mph86%30.21 "Hg10 mi
8:54 PM54 °FPassing clouds.8 mph86%30.21 "Hg10 mi
7:54 PM56 °FPartly sunny.8 mph81%30.20 "Hg10 mi
6:54 PM57 °FOvercast.7 mph81%30.19 "Hg10 mi
5:54 PM59 °FMostly cloudy.7 mph72%30.19 "Hg10 mi
4:54 PM59 °FOvercast.8 mph72%30.19 "Hg10 mi
3:54 PM59 °FOvercast.7 mph75%30.18 "Hg10 mi
2:54 PM58 °FOvercast.8 mph75%30.19 "Hg10 mi
1:54 PM58 °FMore clouds than sun.5 mph78%30.19 "Hg10 mi
1:01 PM57 °FOvercast.7 mph81%30.20 "Hg10 mi
Weather by CustomWeather, © 2016

See weather overviewHow to use our weather pages